{"data":{"norad_id":44067,"intl_designator":"2019-012A","name":"ZHONGXING-6C","alt_names":[],"object_type":"PAYLOAD","status":"ACTIVE","operator":null,"country":"PRC","launch_date":"2019-03-09","launch_site_code":"XICLF","launch_vehicle":null,"mission":null,"orbit_class":"UNKNOWN","rcs_meters":null,"size_class":null,"mass_kg":null,"dimensions":null,"purposes":["comms"],"wikipedia_slug":null,"has_3d_model":false,"image_url":null,"decayed_at":null,"tle_current":{"epoch":"2026-09-20T00:26:08.374272Z","epoch_age_seconds":45882,"freshness":"FRESH","line1":"1 44067U 19012A   26263.01815248 -.00000339  00000+0  00000+0 0  9996","line2":"2 44067   0.0392 327.3980 0014105  97.5167  70.9906  1.00274050 27699","mean_motion":1.0027405,"eccentricity":0.0014105,"inclination_deg":0.0392,"raan_deg":327.398,"arg_perigee_deg":97.5167,"mean_anomaly_deg":70.9906,"bstar":0,"rev_number":2769,"period_min":1436.0644653328,"perigee_km":35726.487552586,"apogee_km":35845.432470256,"semimajor_km":42164.097011421,"source":"CELESTRAK","updated_at":"2026-09-20T09:00:35.265906Z"}}}